Time,TemperatureF,DewpointF,PressureIn,WindDirection,WindDirectionDegrees,WindSpeedMPH,WindSpeedGustMPH,Humidity,HourlyPrecipIn,Conditions,Clouds,dailyrainin,SoftwareType,DateUTC
2013-07-21 00:07:00,69.7,60.0,29.86,SSW,212,3.0,13.0,72,0.00,,,0.00,weatherlink.com 1.10,2013-07-21 07:07:00,
2013-07-21 00:22:00,69.1,61.0,29.86,SSW,212,3.0,14.0,74,0.00,,,0.00,weatherlink.com 1.10,2013-07-21 07:22:00,
2013-07-21 00:37:00,68.6,60.0,29.86,SW,234,10.0,15.0,75,0.00,,,0.00,weatherlink.com 1.10,2013-07-21 07:37:00,
2013-07-21 00:52:00,68.2,60.0,29.85,WSW,251,5.0,14.0,75,0.00,,,0.00,weatherlink.com 1.10,2013-07-21 07:52:00,
2013-07-21 01:07:00,67.5,60.0,29.85,WSW,255,8.0,14.0,76,0.00,,,0.00,weatherlink.com 1.10,2013-07-21 08:07:00,
2013-07-21 01:22:00,66.9,58.0,29.85,SW,216,5.0,14.0,74,0.00,,,0.00,weatherlink.com 1.10,2013-07-21 08:22:00,
2013-07-21 01:37:00,66.5,59.0,29.84,WSW,241,3.0,14.0,76,0.00,,,0.00,weatherlink.com 1.10,2013-07-21 08:37:00,
2013-07-21 01:52:00,65.9,59.0,29.84,WSW,237,8.0,15.0,78,0.00,,,0.00,weatherlink.com 1.10,2013-07-21 08:52:00,
2013-07-21 02:07:00,65.4,59.0,29.84,South,186,8.0,14.0,79,0.00,,,0.00,weatherlink.com 1.10,2013-07-21 09:07:00,
2013-07-21 02:22:00,65.0,58.0,29.84,WNW,291,4.0,16.0,79,0.00,,,0.00,weatherlink.com 1.10,2013-07-21 09:22:00,
2013-07-21 02:37:00,64.7,58.0,29.84,SSW,211,6.0,17.0,80,0.00,,,0.00,weatherlink.com 1.10,2013-07-21 09:37:00,
2013-07-21 02:52:00,64.0,58.0,29.84,WSW,239,5.0,14.0,80,0.00,,,0.00,weatherlink.com 1.10,2013-07-21 09:52:00,
2013-07-21 03:07:00,63.6,58.0,29.84,South,184,3.0,14.0,81,0.00,,,0.00,weatherlink.com 1.10,2013-07-21 10:07:00,
2013-07-21 03:22:00,63.3,57.0,29.85,SW,229,3.0,13.0,80,0.00,,,0.00,weatherlink.com 1.10,2013-07-21 10:22:00,
2013-07-21 03:37:00,62.9,57.0,29.85,SSW,200,4.0,13.0,80,0.00,,,0.00,weatherlink.com 1.10,2013-07-21 10:37:00,
2013-07-21 03:52:00,62.5,57.0,29.85,South,190,2.0,11.0,81,0.00,,,0.00,weatherlink.com 1.10,2013-07-21 10:52:00,
2013-07-21 04:07:00,62.2,56.0,29.85,South,191,7.0,14.0,81,0.00,,,0.00,weatherlink.com 1.10,2013-07-21 11:07:00,
2013-07-21 04:22:00,61.9,56.0,29.85,SW,219,3.0,11.0,81,0.00,,,0.00,weatherlink.com 1.10,2013-07-21 11:22:00,
2013-07-21 04:37:00,61.6,56.0,29.84,WSW,250,5.0,12.0,83,0.00,,,0.00,weatherlink.com 1.10,2013-07-21 11:37:00,
2013-07-21 04:52:00,61.3,56.0,29.84,SW,229,4.0,14.0,83,0.00,,,0.00,weatherlink.com 1.10,2013-07-21 11:52:00,
2013-07-21 05:07:00,61.1,56.0,29.85,WSW,252,6.0,14.0,84,0.00,,,0.00,weatherlink.com 1.10,2013-07-21 12:07:00,
2013-07-21 05:22:00,60.8,56.0,29.84,West,261,5.0,14.0,83,0.00,,,0.00,weatherlink.com 1.10,2013-07-21 12:22:00,
2013-07-21 05:37:00,60.7,56.0,29.84,SW,215,11.0,13.0,85,0.00,,,0.00,weatherlink.com 1.10,2013-07-21 12:37:00,
2013-07-21 05:52:00,60.5,56.0,29.84,WSW,256,6.0,15.0,85,0.00,,,0.00,weatherlink.com 1.10,2013-07-21 12:52:00,
2013-07-21 06:08:00,60.2,56.0,29.84,SSE,153,4.0,15.0,85,0.00,,,0.00,weatherlink.com 1.10,2013-07-21 13:08:00,
2013-07-21 06:23:00,60.0,56.0,29.84,South,179,7.0,18.0,85,0.00,,,0.00,weatherlink.com 1.10,2013-07-21 13:23:00,
2013-07-21 06:38:00,60.2,56.0,29.85,South,186,5.0,16.0,86,0.00,,,0.00,weatherlink.com 1.10,2013-07-21 13:38:00,
2013-07-21 06:53:00,60.2,56.0,29.85,South,182,4.0,19.0,86,0.00,,,0.00,weatherlink.com 1.10,2013-07-21 13:53:00,
2013-07-21 07:08:00,60.4,56.0,29.85,ESE,103,4.0,18.0,86,0.00,,,0.00,weatherlink.com 1.10,2013-07-21 14:08:00,
2013-07-21 07:23:00,60.4,56.0,29.85,SW,221,5.0,23.0,85,0.00,,,0.00,weatherlink.com 1.10,2013-07-21 14:23:00,
2013-07-21 07:38:00,60.0,56.0,29.84,South,175,11.0,19.0,85,0.00,,,0.00,weatherlink.com 1.10,2013-07-21 14:38:00,
2013-07-21 07:53:00,60.3,56.0,29.84,South,187,14.0,20.0,84,0.00,,,0.00,weatherlink.com 1.10,2013-07-21 14:53:00,
2013-07-21 08:08:00,60.7,56.0,29.84,WSW,258,23.0,23.0,84,0.00,,,0.00,weatherlink.com 1.10,2013-07-21 15:08:00,
2013-07-21 08:23:00,61.5,56.0,29.84,West,265,7.0,23.0,82,0.00,,,0.00,weatherlink.com 1.10,2013-07-21 15:23:00,
2013-07-21 08:38:00,62.0,56.0,29.84,SSW,197,8.0,18.0,82,0.00,,,0.00,weatherlink.com 1.10,2013-07-21 15:38:00,
2013-07-21 08:53:00,62.7,57.0,29.84,WSW,244,13.0,18.0,81,0.00,,,0.00,weatherlink.com 1.10,2013-07-21 15:53:00,
2013-07-21 09:08:00,63.2,57.0,29.85,West,262,6.0,26.0,79,0.00,,,0.00,weatherlink.com 1.10,2013-07-21 16:08:00,
2013-07-21 09:23:00,63.9,57.0,29.84,South,182,8.0,18.0,78,0.00,,,0.00,weatherlink.com 1.10,2013-07-21 16:23:00,
2013-07-21 09:38:00,64.7,57.0,29.85,WSW,244,13.0,18.0,77,0.00,,,0.00,weatherlink.com 1.10,2013-07-21 16:38:00,
2013-07-21 09:53:00,65.3,58.0,29.84,SW,224,12.0,22.0,76,0.00,,,0.00,weatherlink.com 1.10,2013-07-21 16:53:00,
2013-07-21 10:08:00,65.6,58.0,29.84,SW,215,11.0,21.0,75,0.00,,,0.00,weatherlink.com 1.10,2013-07-21 17:08:00,
2013-07-21 10:23:00,66.6,57.0,29.84,WSW,237,10.0,17.0,72,0.00,,,0.00,weatherlink.com 1.10,2013-07-21 17:23:00,
2013-07-21 10:38:00,67.5,57.0,29.84,WSW,256,9.0,18.0,70,0.00,,,0.00,weatherlink.com 1.10,2013-07-21 17:38:00,
2013-07-21 10:53:00,68.3,58.0,29.84,West,260,13.0,17.0,69,0.00,,,0.00,weatherlink.com 1.10,2013-07-21 17:53:00,
2013-07-21 11:08:00,69.3,58.0,29.83,WSW,246,7.0,17.0,67,0.00,,,0.00,weatherlink.com 1.10,2013-07-21 18:08:00,
2013-07-21 11:23:00,69.7,58.0,29.83,West,281,10.0,23.0,67,0.00,,,0.00,weatherlink.com 1.10,2013-07-21 18:23:00,
2013-07-21 11:38:00,71.5,59.0,29.83,WSW,258,9.0,14.0,64,0.00,,,0.00,weatherlink.com 1.10,2013-07-21 18:38:00,
2013-07-21 11:53:00,72.9,58.0,29.82,SW,223,10.0,16.0,60,0.00,,,0.00,weatherlink.com 1.10,2013-07-21 18:53:00,
2013-07-21 12:08:00,73.3,59.0,29.82,WSW,242,11.0,14.0,61,0.00,,,0.00,weatherlink.com 1.10,2013-07-21 19:08:00,
2013-07-21 12:23:00,72.8,59.0,29.81,SSW,194,6.0,16.0,63,0.00,,,0.00,weatherlink.com 1.10,2013-07-21 19:23:00,
2013-07-21 12:38:00,73.2,60.0,29.80,West,265,11.0,15.0,63,0.00,,,0.00,weatherlink.com 1.10,2013-07-21 19:38:00,
2013-07-21 12:53:00,73.7,60.0,29.80,South,175,6.0,16.0,62,0.00,,,0.00,weatherlink.com 1.10,2013-07-21 19:53:00,
2013-07-21 13:08:00,75.2,61.0,29.81,SSW,201,4.0,15.0,61,0.00,,,0.00,weatherlink.com 1.10,2013-07-21 20:08:00,
2013-07-21 13:23:00,77.9,60.0,29.81,SSW,192,2.0,15.0,54,0.00,,,0.00,weatherlink.com 1.10,2013-07-21 20:23:00,
2013-07-21 13:38:00,78.4,59.0,29.80,West,263,3.0,21.0,52,0.00,,,0.00,weatherlink.com 1.10,2013-07-21 20:38:00,
2013-07-21 13:53:00,79.6,60.0,29.80,SSW,210,5.0,10.0,51,0.00,,,0.00,weatherlink.com 1.10,2013-07-21 20:53:00,
2013-07-21 14:09:00,79.3,60.0,29.79,SW,236,9.0,19.0,51,0.00,,,0.00,weatherlink.com 1.10,2013-07-21 21:09:00,
2013-07-21 14:24:00,79.9,59.0,29.79,West,278,4.0,14.0,49,0.00,,,0.00,weatherlink.com 1.10,2013-07-21 21:24:00,
2013-07-21 14:39:00,80.3,58.0,29.78,WSW,258,5.0,19.0,47,0.00,,,0.00,weatherlink.com 1.10,2013-07-21 21:39:00,
2013-07-21 14:54:00,80.1,58.0,29.78,WSW,241,14.0,16.0,47,0.00,,,0.00,weatherlink.com 1.10,2013-07-21 21:54:00,
2013-07-21 15:09:00,80.4,58.0,29.78,WSW,242,9.0,16.0,46,0.00,,,0.00,weatherlink.com 1.10,2013-07-21 22:09:00,
2013-07-21 15:24:00,81.4,58.0,29.77,WSW,237,9.0,15.0,45,0.00,,,0.00,weatherlink.com 1.10,2013-07-21 22:24:00,
2013-07-21 15:39:00,82.1,58.0,29.78,West,268,6.0,17.0,44,0.00,,,0.00,weatherlink.com 1.10,2013-07-21 22:39:00,
2013-07-21 15:54:00,82.6,57.0,29.77,WSW,258,5.0,15.0,42,0.00,,,0.00,weatherlink.com 1.10,2013-07-21 22:54:00,
2013-07-21 16:09:00,82.3,58.0,29.77,WSW,252,5.0,17.0,43,0.00,,,0.00,weatherlink.com 1.10,2013-07-21 23:09:00,
2013-07-21 16:24:00,82.3,58.0,29.77,WSW,244,3.0,16.0,43,0.00,,,0.00,weatherlink.com 1.10,2013-07-21 23:24:00,
2013-07-21 16:39:00,83.8,58.0,29.77,SW,234,5.0,12.0,41,0.00,,,0.00,weatherlink.com 1.10,2013-07-21 23:39:00,
2013-07-21 16:54:00,84.4,57.0,29.77,WSW,247,7.0,14.0,39,0.00,,,0.00,weatherlink.com 1.10,2013-07-21 23:54:00,
2013-07-21 17:09:00,83.7,57.0,29.76,SW,221,1.0,15.0,40,0.00,,,0.00,weatherlink.com 1.10,2013-07-22 00:09:00,
2013-07-21 17:24:00,82.4,56.0,29.77,West,268,5.0,12.0,41,0.00,,,0.00,weatherlink.com 1.10,2013-07-22 00:24:00,
2013-07-21 17:39:00,81.5,57.0,29.76,WSW,241,5.0,16.0,43,0.00,,,0.00,weatherlink.com 1.10,2013-07-22 00:39:00,
2013-07-21 17:54:00,81.0,57.0,29.77,SW,225,2.0,16.0,44,0.00,,,0.00,weatherlink.com 1.10,2013-07-22 00:54:00,
2013-07-21 18:09:00,80.7,57.0,29.77,SSW,204,4.0,15.0,45,0.00,,,0.00,weatherlink.com 1.10,2013-07-22 01:09:00,
2013-07-21 18:24:00,80.2,58.0,29.77,WSW,237,3.0,11.0,47,0.00,,,0.00,weatherlink.com 1.10,2013-07-22 01:24:00,
2013-07-21 18:39:00,79.7,58.0,29.78,SSW,212,2.0,15.0,48,0.00,,,0.00,weatherlink.com 1.10,2013-07-22 01:39:00,
2013-07-21 18:54:00,79.3,58.0,29.78,South,189,4.0,12.0,48,0.00,,,0.00,weatherlink.com 1.10,2013-07-22 01:54:00,
2013-07-21 19:09:00,78.7,57.0,29.78,SW,235,1.0,11.0,48,0.00,,,0.00,weatherlink.com 1.10,2013-07-22 02:09:00,
2013-07-21 19:24:00,78.4,57.0,29.79,SSW,192,2.0,11.0,48,0.00,,,0.00,weatherlink.com 1.10,2013-07-22 02:24:00,
2013-07-21 19:39:00,77.8,57.0,29.79,WSW,251,7.0,11.0,49,0.00,,,0.00,weatherlink.com 1.10,2013-07-22 02:39:00,
2013-07-21 19:54:00,77.5,57.0,29.79,SW,223,3.0,9.0,49,0.00,,,0.00,weatherlink.com 1.10,2013-07-22 02:54:00,
2013-07-21 20:09:00,77.0,56.0,29.80,WSW,242,0.0,11.0,49,0.00,,,0.00,weatherlink.com 1.10,2013-07-22 03:09:00,
2013-07-21 20:24:00,77.1,56.0,29.80,WSW,237,7.0,10.0,49,0.00,,,0.00,weatherlink.com 1.10,2013-07-22 03:24:00,
2013-07-21 20:39:00,76.7,56.0,29.81,West,260,0.0,8.0,49,0.00,,,0.00,weatherlink.com 1.10,2013-07-22 03:39:00,
2013-07-21 20:54:00,76.5,56.0,29.81,WNW,301,0.0,2.0,50,0.00,,,0.00,weatherlink.com 1.10,2013-07-22 03:54:00,
2013-07-21 21:09:00,75.6,56.0,29.81,East,90,1.0,6.0,51,0.00,,,0.00,weatherlink.com 1.10,2013-07-22 04:09:00,
2013-07-21 21:24:00,75.4,56.0,29.82,East,100,1.0,3.0,51,0.00,,,0.00,weatherlink.com 1.10,2013-07-22 04:24:00,
2013-07-21 21:39:00,74.0,56.0,29.82,ENE,64,0.0,9.0,54,0.00,,,0.00,weatherlink.com 1.10,2013-07-22 04:39:00,
2013-07-21 21:54:00,73.3,56.0,29.82,East,81,2.0,5.0,55,0.00,,,0.00,weatherlink.com 1.10,2013-07-22 04:54:00,
2013-07-21 22:09:00,73.0,57.0,29.82,South,179,0.0,6.0,58,0.00,,,0.00,weatherlink.com 1.10,2013-07-22 05:09:00,
2013-07-21 22:24:00,72.5,59.0,29.83,SSW,209,2.0,7.0,62,0.00,,,0.00,weatherlink.com 1.10,2013-07-22 05:24:00,
2013-07-21 22:39:00,72.0,60.0,29.82,SSE,165,1.0,14.0,65,0.00,,,0.00,weatherlink.com 1.10,2013-07-22 05:39:00,
2013-07-21 22:54:00,71.7,60.0,29.82,ESE,111,6.0,7.0,67,0.00,,,0.00,weatherlink.com 1.10,2013-07-22 05:54:00,
2013-07-21 23:09:00,71.6,60.0,29.82,SW,224,4.0,10.0,67,0.00,,,0.00,weatherlink.com 1.10,2013-07-22 06:09:00,
2013-07-21 23:24:00,71.4,60.0,29.82,South,175,2.0,11.0,68,0.00,,,0.00,weatherlink.com 1.10,2013-07-22 06:24:00,
2013-07-21 23:39:00,70.8,61.0,29.83,SSE,165,0.0,15.0,71,0.00,,,0.00,weatherlink.com 1.10,2013-07-22 06:39:00,
2013-07-21 23:54:00,70.4,61.0,29.83,South,183,2.0,14.0,72,0.00,,,0.00,weatherlink.com 1.10,2013-07-22 06:54:00,